Weather in Zabolotye

Russia / Tver Oblast     58°07′58″N   35°44′35″E
temp.,
°C
wind,
m/s
gust,
m/s
humid.,
%
clouds,
%
prec.,
mm/h
press.,
hPa
HPBL,
m
6 may, thu
thu600:00+6s259980 0.0 1005207
03:00+3se249853 0.0 100586
06:00+6se3119791 0.8 1002362
09:00+10sse5128997 1.0 999522
12:00+15sse61373100 0.1 9961202
15:00+12s7178488 1.8 9951497
18:00+6wsw61292100 1.3 997690
21:00+6sw5118888 1.3 10001046
7 may, fri
fri700:00+6ssw5118677 0.1 10021097
03:00+5sw51184100 0.1 10031253
06:00+5ssw5108277 0.1 1005925
09:00+8sw6126238 0.1 10051524
12:00+11sw6115394 0.6 10062248
15:00+9sw5107672 1.5 10071153
18:00+10sw476995 0.4 10081260
21:00+5ssw2380100 0.4 100950
8 may, sat
sat800:00+5se2687100 0.0 1008132
03:00+6se3893100 0.1 1007269
06:00+7se51394100 2.3 10041263
09:00+7sse51293100 2.6 1003806
12:00+8sse41194100 0.4 1002718
15:00+7se41096100 1.6 999829
18:00+7sse3898100 3.8 997503
21:00+7s389387 4.7 996380
9 may, sun
sun900:00+5s4896100 0.1 995577
03:00+2w71597100 0.6 997930
06:00+2w81797100 2.4 10021166
09:00+5wnw7167610 2.6 10071228
12:00+9wnw7115468 0.0 10121779
15:00+11wnw5942100 0.3 10152473
18:00+11wnw38470 0.0 10182139
21:00+5wsw25805 0.0 102174
10 may, mon
mon1000:00+3sw27835 0.0 1023127
03:00+3ssw31086100 0.0 1024186
06:00+4ssw3117632 0.0 1025291
09:00+10ssw595975 0.0 1025733
12:00+10ssw41062100 0.0 1026795
15:00+15sw575211 0.0 10261122
18:00+15ssw48608 0.0 10251011
21:00+10s3108748 0.0 1026201